Flag for Norway Weather past 2 weeks in Longyearbyen, Svalbard, Norway

Now
30 °F

Snow flurries. Broken clouds.


Feels Like: 17 °F
Forecast: 28 / 34 °F
Wind: 23 mph from West

Location: Svalbard Lufthavn

Current Time: Sep 18, 2014 at 11:45:53 AM

Latest Report: Sep 18, 2014 at 10:50 AM


Visibility: N/A

Pressure: 29.65 "Hg

Humidity: 69%

Dew point: 21 °F

Location of LongyearbyenLocation

Historic Weather in Longyearbyen — Graph

°F

Longyearbyen temperature yesterday

Maximum temperature yesterday: 43 °F (at 12:50 AM)
Minimum temperature yesterday: 28 °F (at 10:50 PM)
Average temperature yesterday: 33 °F

Past Weeks' High & Low Weather Summary

 TemperatureHumidityPressure
High50 °F (Sep 16, 12:50 PM)93% (Sep 5, 9:50 AM)30.07 "Hg (Sep 5, 9:50 AM)
Low28 °F (Sep 17, 10:50 PM)56% (Sep 10, 12:50 PM)29.03 "Hg (Sep 13, 4:50 PM)
Average37 °F75%29.66 "Hg
* Reported Sep 3 9:50 AM — Sep 18 9:50 AM, Longyearbyen, Weather by CustomWeather, © 2014

Note: Actual official high and low records may vary slightly from our data, if they occured in-between our weather recording intervals... More about our weather records

Advertising

Longyearbyen weather history for previous 24 hours

 ConditionsComfort  
Time TempWeatherWind HumidityBarometerVisibility
9:50 AM
Sep 18
32 °FScattered showers. Broken clouds.26 mph75%29.65 "HgN/A
8:50 AM30 °FSnow flurries. Broken clouds.26 mph86%29.62 "HgN/A
7:50 AM30 °FSnow flurries. Partly sunny.29 mph80%29.62 "HgN/A
6:50 AM30 °FSnow flurries. Partly cloudy.29 mph80%29.62 "Hg5 mi
5:50 AM30 °FSnow flurries. Partly cloudy.26 mph80%29.62 "HgN/A
4:50 AM30 °FSnow flurries. Passing clouds.33 mph75%29.62 "Hg5 mi
2:50 AM30 °FScattered showers. Passing clouds.30 mph75%29.62 "HgN/A
12:50 AM30 °FScattered showers. Passing clouds.25 mph69%29.65 "HgN/A
12:08 AM28 °FSnow flurries. Passing clouds.28 mph80%29.62 "HgN/A
10:50 PM
Sep 17
28 °FSnow flurries. Partly cloudy.29 mph80%29.62 "HgN/A
9:50 PM30 °FSnow flurries. Partly cloudy.31 mph69%29.62 "HgN/A
8:50 PM30 °FScattered showers. Partly sunny.30 mph69%29.59 "HgN/A
7:50 PM30 °FScattered clouds.29 mph69%29.59 "HgN/A
6:50 PM30 °FSleet. Scattered clouds.28 mph75%29.59 "HgN/A
5:50 PM30 °FScattered clouds.28 mph75%29.56 "HgN/A
4:50 PM30 °FScattered showers. Scattered clouds.30 mph69%29.56 "HgN/A
3:50 PM32 °FScattered showers. Scattered clouds.28 mph69%29.56 "HgN/A
2:50 PM32 °FSnow flurries. Scattered clouds.31 mph69%29.56 "HgN/A
1:50 PM30 °FScattered showers. Scattered clouds.22 mph69%29.53 "HgN/A
12:50 PM30 °FScattered showers. Partly sunny.23 mph75%29.56 "HgN/A
11:50 AM30 °FScattered showers. Broken clouds.28 mph75%29.53 "HgN/A
Weather by CustomWeather, © 2014

See weather overviewHow to use our weather pages